[[{"header":{"parameterUnit":"m.s-1","parameterCategory":1,"la1":30.2991,"la2":30.254,"lo1":-89.0895,"lo2":-89.0444,"dy":0.0017,"dx":0.0017,"nx":28,"ny":28,"refTime":"2023-04-12T21:00:00:Z","depth":0,"parameterNumber":2,"parameterNumberName":"U-component_of_WINDS"},"data":[0,0,0,0,0,0,0,0,0,0,0,0,0,0,0,0,0,0,0,0,0,0,0,0,0,0,0,0,0,0,0,0,0,0,0,0,0,0,0,0,0,0,0,0,0,0,0,0,0,0,0,0,0,0,0,0,0,0,5.4353,5.4353,0,5.4345,5.4344,5.4344,5.423,5.4227,5.4224,5.4221,5.4214,5.4216,5.4219,0,0,0,0,0,0,0,0,0,0,0,0,0,5.4271,5.4273,5.4353,5.4353,5.4353,5.4345,5.4344,5.4344,5.423,5.4227,5.4223,5.422,5.4213,5.4216,5.4219,0,0,0,0,0,0,0,0,0,0,0,0,0,5.4289,5.4273,5.4353,5.4295,5.429,5.4345,5.4344,5.4344,5.4231,5.4227,5.4222,5.4218,5.4212,5.4216,5.4219,5.433,0,0,5.4231,5.4232,0,0,0,0,0,0,0,0,5.4288,5.4292,5.4304,5.4299,5.4293,5.4284,5.4312,5.4339,5.4232,5.4253,5.4221,5.4216,5.4241,5.4242,5.425,5.4329,5.4329,5.4231,5.4233,5.4235,5.4236,0,0,0,0,0,0,0,5.4287,5.4292,5.435,5.4304,5.4298,5.4269,5.4267,5.4317,5.4272,5.4251,5.4243,5.4243,5.4237,5.4246,5.4249,5.4329,5.4231,5.4234,5.4237,5.4238,5.4495,5.4499,0,0,0,0,0,0,5.4294,5.4291,5.435,5.4349,5.428,5.4274,5.4272,5.4291,5.4271,5.4263,5.4247,5.4238,5.4242,5.4244,5.4248,5.4372,5.4235,5.4238,5.4241,5.449,5.4496,5.45,0,0,0,0,0,0,5.4292,5.43,5.435,5.4318,5.4322,5.428,5.4303,5.4293,5.4302,5.4267,5.4259,5.4265,5.4239,5.4243,5.4309,5.437,5.424,5.4244,5.4485,5.4492,5.4498,5.4624,0,0,0,0,0,0,5.429,5.43,5.4342,5.432,5.4325,5.4412,5.4307,5.4296,5.4309,5.4297,5.4282,5.4275,5.4236,5.4304,5.4313,5.4373,5.4247,5.4479,5.4488,5.4496,5.4614,5.4635,5.4652,0,0,0,0,0,5.4288,5.4379,5.4345,5.4352,5.4376,5.4416,5.4419,5.4371,5.4315,5.4356,5.4333,5.4276,5.4363,5.4312,5.4321,5.4383,5.4475,5.4485,5.4495,5.4606,5.4631,5.4651,0,0,0,0,0,0,5.4411,5.4375,5.4337,5.4423,5.4423,5.4397,5.4447,5.4399,5.4415,5.4403,5.4344,5.4341,5.4416,5.4407,5.435,5.4487,5.4409,5.4421,5.449,5.4513,5.4532,5.4531,5.425,0,0,0,0,0,5.4448,5.4483,5.445,5.453,5.4532,5.449,5.4506,5.4468,5.4466,5.4466,5.4448,5.4448,5.4475,5.4494,5.4518,5.4614,5.4607,5.4661,5.468,5.4695,5.4706,5.4752,5.4775,5.4534,5.4534,5.4534,0,0,5.4525,5.451,5.4536,5.4554,5.455,5.4587,5.4491,5.4535,5.4561,5.4473,5.4533,5.452,5.4516,5.4597,5.4632,5.4592,5.4771,5.4708,5.4721,5.4723,5.4765,5.4788,5.4808,5.4541,5.454,5.4539,0,0,5.4683,5.4677,5.474,5.4737,5.4731,5.4702,5.4718,5.4698,5.4685,5.4745,5.4678,5.4709,5.4758,5.4757,5.4763,5.4919,5.4866,5.4929,5.5025,5.5071,5.509,5.5107,5.5159,5.5179,5.494,5.494,5.4941,0,5.4779,5.4832,5.4779,5.4826,5.4835,5.4756,5.4819,5.4819,5.4822,5.4829,5.4785,5.4842,5.4834,5.4912,5.4949,5.4959,5.4972,5.4928,5.5092,5.5108,5.5122,5.5171,5.5192,5.4948,5.4947,5.4946,5.4945,0,5.4949,5.4986,5.5039,5.504,5.5056,5.5111,5.5066,5.5088,5.505,5.5025,5.5086,5.5074,5.5091,5.5108,5.5072,5.518,5.5155,5.5103,5.5021,5.5153,5.5198,5.5217,5.4958,5.4955,5.4953,5.4951,0,0,5.5183,5.5154,5.5173,5.5172,5.5159,5.5186,5.5238,5.5254,5.5272,5.5277,5.5317,5.5359,5.5309,5.5316,5.528,5.5321,5.5441,5.5262,5.5261,5.5293,5.5555,5.5592,5.5615,5.5407,5.541,5.5413,5.5554,0,5.5332,5.5416,5.5369,5.546,5.5492,5.5417,5.5461,5.5457,5.5436,5.546,5.5437,5.5467,5.5401,5.5404,5.5442,5.5418,5.5492,5.5408,5.5441,5.5443,5.5441,5.5638,5.5678,5.5811,5.5572,5.5575,5.5577,0,5.5517,5.5527,5.562,5.5597,5.5609,5.565,5.5659,5.5684,5.5678,5.5659,5.5667,5.5619,5.5667,5.559,5.5653,5.5597,5.5609,5.5599,5.5603,5.5602,5.5515,5.5639,5.5853,5.5872,5.5605,5.5602,5.56,0,5.5673,5.571,5.5769,5.5771,5.5748,5.5777,5.5769,5.5759,5.577,5.578,5.5786,5.5802,5.581,5.5822,5.578,5.5728,5.5849,5.5769,5.5833,5.5834,5.5858,5.5857,5.6074,5.5873,5.5872,5.5872,5.5872,0,5.5842,5.5901,5.5838,5.5875,5.5938,5.5884,5.5948,5.5932,5.5923,5.5955,5.5893,5.5923,5.5867,5.5893,5.5861,5.5916,5.5921,5.5906,5.5896,5.591,5.5911,5.5914,5.5902,5.5877,5.5876,5.5875,5.5874,0,5.6026,5.5987,5.6046,5.6018,5.6012,5.606,5.6036,5.6068,5.6042,5.6083,5.6089,5.6049,5.6075,5.6035,5.6058,5.6036,5.6112,5.609,5.6113,5.6105,5.617,5.6163,5.6393,5.6419,5.6205,5.6207,5.6209,0,5.6134,5.6177,5.6153,5.6169,5.6164,5.6191,5.6201,5.615,5.6164,5.616,5.6192,5.6213,5.6226,5.6271,5.6244,5.626,5.6236,5.6316,5.6238,5.6249,5.6232,5.6229,5.6231,5.633,5.6333,5.6335,5.6337,0,5.633,5.6307,5.6325,5.6335,5.635,5.6356,5.6358,5.6375,5.632,5.6339,5.6364,5.6375,5.6396,5.6417,5.6426,5.6417,5.6368,5.6362,5.6377,5.6389,5.6399,5.6391,5.6152,5.6356,5.6354,5.6353,5.6352,5.6351,5.6476,5.6509,5.6496,5.6517,5.6513,5.6515,5.6543,5.652,5.6539,5.6551,5.6521,5.6553,5.6544,5.6551,5.6548,5.6572,5.6537,5.656,5.6565,5.657,5.6578,5.6399,5.6574,5.6574,5.6573,5.6573,5.6572,0,5.6664,5.6652,5.6672,5.6674,5.6691,5.6643,5.6642,5.6658,5.6686,5.6682,5.6696,5.6724,5.6743,5.6718,5.6732,5.6756,5.6734,5.6762,5.6757,5.6756,5.6611,5.6595,5.6779,5.6779,5.6779,5.6779,5.6779,5.6779,5.6764,5.6816,5.6792,5.6841,5.6829,5.6858,5.6861,5.6862,5.6858,5.6891,5.6906,5.6889,5.6876,5.6889,5.6904,5.6896,5.6903,5.6938,5.6922,5.6787,5.6766,5.6747,5.6731,5.6941,5.6941,5.7064,5.7065,5.7066]},{"header":{"parameterUnit":"m.s-1","parameterCategory":1,"la1":30.2991,"la2":30.254,"lo1":-89.0895,"lo2":-89.0444,"dy":0.0017,"dx":0.0017,"nx":28,"ny":28,"refTime":"2023-04-12T21:00:00:Z","depth":0,"parameterNumber":3,"parameterNumberName":"V-component_of_WINDS"},"data":[0,0,0,0,0,0,0,0,0,0,0,0,0,0,0,0,0,0,0,0,0,0,0,0,0,0,0,0,0,0,0,0,0,0,0,0,0,0,0,0,0,0,0,0,0,0,0,0,0,0,0,0,0,0,0,0,0,0,6.8529,6.8531,0,6.8743,6.8745,6.8748,6.8793,6.8792,6.879,6.8789,6.8998,6.9005,6.9012,0,0,0,0,0,0,0,0,0,0,0,0,0,6.8149,6.8155,6.8528,6.8531,6.8534,6.8742,6.8745,6.8748,6.8794,6.8792,6.879,6.8788,6.8996,6.9004,6.9013,0,0,0,0,0,0,0,0,0,0,0,0,0,6.8333,6.8158,6.8528,6.8582,6.8589,6.8742,6.8745,6.8749,6.8794,6.8792,6.8789,6.8787,6.8993,6.9003,6.9014,6.9125,0,0,6.9046,6.9051,0,0,0,0,0,0,0,0,6.8322,6.8347,6.8571,6.8579,6.8587,6.8739,6.8688,6.8875,6.8795,6.8716,6.8789,6.8786,6.8913,6.893,6.8975,6.9135,6.9144,6.9047,6.9053,6.9058,6.9061,0,0,0,0,0,0,0,6.831,6.8338,6.8613,6.8574,6.8584,6.8592,6.8616,6.8724,6.8825,6.8723,6.8727,6.8752,6.8917,6.8965,6.898,6.9147,6.9047,6.9056,6.9062,6.9067,6.9406,6.9408,0,0,0,0,0,0,6.8289,6.8327,6.8606,6.8619,6.8447,6.8601,6.8627,6.8692,6.8824,6.8842,6.8753,6.8753,6.8948,6.8968,6.8988,6.9126,6.9058,6.9068,6.9074,6.9403,6.9406,6.9409,0,0,0,0,0,0,6.828,6.8313,6.8598,6.8474,6.8511,6.861,6.8683,6.8698,6.8746,6.8847,6.8864,6.8785,6.8947,6.8973,6.9091,6.9134,6.9072,6.9082,6.94,6.9404,6.9408,6.9403,0,0,0,0,0,0,6.8269,6.831,6.8356,6.8475,6.8518,6.87,6.8685,6.8704,6.8765,6.8767,6.8881,6.8898,6.8947,6.9075,6.9101,6.9147,6.909,6.9397,6.9402,6.9407,6.9399,6.9406,6.9412,0,0,0,0,0,6.8256,6.8344,6.8358,6.8392,6.8578,6.8703,6.8727,6.8785,6.8769,6.8814,6.8878,6.8894,6.9125,6.9087,6.9117,6.9166,6.9394,6.94,6.9406,6.9397,6.9405,6.9412,0,0,0,0,0,0,6.8224,6.8361,6.8378,6.8508,6.8594,6.871,6.8769,6.8792,6.8881,6.8878,6.8944,6.8969,6.9082,6.9136,6.9091,6.9279,6.9258,6.9271,6.9241,6.9249,6.9255,6.9239,6.9099,0,0,0,0,0,6.8233,6.8327,6.8439,6.8543,6.8586,6.867,6.8727,6.8764,6.8854,6.8889,6.8963,6.9046,6.9138,6.9196,6.9286,6.9407,6.9431,6.9456,6.9462,6.9466,6.9476,6.9542,6.9553,6.9429,6.9429,6.9429,0,0,6.8251,6.8337,6.8392,6.8539,6.861,6.8702,6.87,6.8798,6.8865,6.8903,6.902,6.9076,6.9173,6.9293,6.9349,6.9341,6.9515,6.9474,6.9477,6.9484,6.9549,6.9561,6.9571,6.9434,6.9433,6.9432,0,0,6.8332,6.8407,6.8502,6.8573,6.8681,6.8736,6.8759,6.8872,6.8912,6.903,6.906,6.9139,6.9296,6.9364,6.9419,6.9523,6.9539,6.955,6.9581,6.9645,6.9654,6.9663,6.9699,6.9711,6.9559,6.9559,6.9559,0,6.834,6.8483,6.8546,6.8643,6.8706,6.8747,6.8841,6.8906,6.9036,6.9077,6.9067,6.9263,6.9332,6.9467,6.9492,6.9536,6.9561,6.9537,6.9648,6.9658,6.9667,6.9702,6.9715,6.9559,6.9559,6.9559,6.9559,0,6.8486,6.8585,6.8647,6.8776,6.8845,6.894,6.9014,6.9076,6.9107,6.9162,6.928,6.9364,6.947,6.9505,6.9535,6.9644,6.9635,6.9636,6.9616,6.9678,6.9712,6.9726,6.956,6.956,6.956,6.956,0,0,6.8553,6.8716,6.8737,6.8795,6.8917,6.8992,6.9087,6.9194,6.9245,6.9333,6.9412,6.9543,6.9544,6.9606,6.9644,6.97,6.9774,6.9693,6.9697,6.9704,6.9897,6.9895,6.9909,6.9787,6.9789,6.9792,6.9888,0,6.8647,6.8823,6.8882,6.9025,6.9115,6.9155,6.9237,6.9318,6.9371,6.9452,6.951,6.9601,6.9597,6.9634,6.9692,6.9753,6.9814,6.9747,6.9857,6.9861,6.9832,6.9927,6.9926,7.0013,6.9902,6.9904,6.9906,0,6.8781,6.8874,6.9027,6.9136,6.9176,6.925,6.9352,6.943,6.9521,6.9556,6.9625,6.9658,6.9755,6.9729,6.9862,6.9815,6.9863,6.99,6.9905,6.9917,6.9886,6.994,7.0043,7.0055,6.9927,6.9925,6.9924,0,6.8813,6.8976,6.9088,6.9137,6.9267,6.9317,6.9373,6.9463,6.9523,6.9611,6.965,6.9746,6.9799,6.9871,6.9928,6.9905,7.0054,7.0034,7.0083,7.0081,7.0112,7.0109,7.0223,7.0145,7.0145,7.0144,7.0144,0,6.8912,6.9003,6.9104,6.9173,6.9276,6.9341,6.944,6.9497,6.9577,6.9654,6.9693,6.9765,6.9837,6.9916,6.9961,7.0062,7.0086,7.0114,7.0125,7.011,7.0107,7.0142,7.0137,7.0148,7.0147,7.0146,7.0146,0,6.8964,6.9037,6.9161,6.9275,6.9306,6.9376,6.9471,6.9538,6.9593,6.9691,6.9717,6.9802,6.9898,6.9962,7.0084,7.0114,7.0223,7.0233,7.0194,7.0199,7.0244,7.0238,7.0383,7.0405,7.0313,7.0314,7.0314,0,6.9022,6.9094,6.9216,6.9273,6.933,6.942,6.9483,6.9548,6.9611,6.972,6.9772,6.9871,6.9954,7.0105,7.0175,7.0267,7.0279,7.0323,7.0293,7.0275,7.0278,7.0272,7.0279,7.0327,7.0328,7.0329,7.0329,0,6.9117,6.9149,6.9239,6.9341,6.9415,6.9497,6.958,6.9623,6.9702,6.9769,6.987,6.9934,7.006,7.0156,7.0256,7.0309,7.0331,7.0338,7.0354,7.034,7.0314,7.0327,7.0206,7.0335,7.0334,7.0334,7.0333,7.0333,6.9174,6.9239,6.9335,6.9433,6.9502,6.9578,6.9646,6.971,6.9796,6.9906,6.9938,7.0041,7.0128,7.0264,7.0319,7.0399,7.0394,7.0417,7.0423,7.0428,7.0427,7.0302,7.0417,7.0417,7.0417,7.0417,7.0417,0,6.9269,6.9333,6.9423,6.9538,6.9614,6.9632,6.9724,6.9785,6.9877,6.9958,7.004,7.0153,7.0247,7.0324,7.042,7.0468,7.0481,7.0491,7.0488,7.0499,7.0427,7.0403,7.0479,7.0479,7.0479,7.0479,7.0479,7.0479,6.9328,6.9439,6.9481,6.9625,6.9688,6.9792,6.9843,6.9912,6.9977,7.0103,7.0182,7.0233,7.0312,7.0413,7.0499,7.0519,7.0551,7.0559,7.0581,7.0511,7.0504,7.0497,7.0475,7.0566,7.0566,7.0647,7.0648,7.0648]}]]